#timestamp,LO_Frequency,Hit 
1505210415.5,286046998.4,N
1505210435.3,286046998.3,N
1505210455.1,286047001.0,N
1505210475.8,286046996.5,N
1505210495.7,286046999.4,N
1505210515.5,286046999.4,N
1505210535.3,286047001.0,N
1505210555.2,286046999.0,N
1505210575.9,286046997.8,N
1505210595.7,286047002.0,N
1505210615.6,286047001.7,N
1505210635.4,286047001.5,N
1505210655.2,286047004.2,N
1505210675.1,286047003.7,N
1505210676.0,286047003.7,N
1505210695.8,286047001.3,N
1505210715.6,286047003.9,N
1505210735.5,286047004.4,N
1505210755.3,286047004.3,N
1505210775.1,286047004.3,N
1505210795.9,286047001.6,N
1505210815.7,286046997.9,N
1505210835.5,286047000.4,N
1505210855.3,286047002.2,N
1505210875.2,286047006.4,N
1505210895.0,286047004.7,N
1505210895.9,286047004.7,N
1505210915.7,286047002.7,N
1505210935.6,286047002.9,N
1505210955.4,286047006.5,N
1505210975.2,286047007.3,N
1505210995.1,286047005.0,N
1505210996.0,286047005.0,N
1505211015.8,286047005.2,N
1505211035.6,286047005.9,N
1505211055.5,286047006.5,N
1505211075.3,286047005.1,N
1505211095.1,286047007.6,P
1505211115.9,286046998.8,N
1505211135.7,286046998.8,N
1505211155.5,286047002.7,N
1505211175.4,286047004.1,N
1505211195.2,286047004.0,N
1505211215.0,286047000.4,N
1505211215.9,286047000.4,N
1505211235.8,286046998.5,N
1505211255.6,286046995.3,N
1505211275.4,286046997.5,N
1505211295.3,286046996.8,N
1505211315.1,286046996.6,N
1505211316.0,286046996.6,N
1505211335.8,286046999.3,N
1505211355.7,286046998.7,N
1505211375.5,286046998.4,N
1505211395.3,286046998.7,N
1505211415.1,286046997.7,N
1505211435.9,286046997.2,N
1505211455.7,286046997.8,N
1505211475.5,286046998.6,N
1505211495.4,286046998.7,N
1505211515.2,286046998.9,N
1505211535.0,286046994.9,N
1505211535.9,286046994.9,N
1505211555.8,286046994.1,N
1505211575.6,286046999.3,N
1505211595.4,286047002.0,N
1505211615.3,286047000.6,N
1505211635.1,286046999.0,N
1505211636.0,286046999.0,N
1505211655.8,286046999.2,N
1505211675.7,286046999.9,N
1505211695.5,286047002.7,N
1505211715.3,286046998.3,N
1505211735.2,286047002.1,N
1505211755.9,286047002.1,N
1505211775.7,286046998.1,N
1505211795.6,286047000.9,N
1505211815.4,286046998.7,N
1505211835.2,286046996.5,N
1505211855.0,286046999.5,N
1505211856.0,286046999.5,N
1505211875.8,286046995.8,N
1505211895.6,286046996.0,N
1505211915.4,286046994.5,N
1505211935.3,286046993.8,N
1505211955.1,286046990.6,P
1505211975.8,286046993.7,N
1505211995.7,286046993.7,N
1505212015.5,286046988.9,P
1505212035.4,286046995.5,N
1505212055.2,286046995.7,N
1505212075.0,286046999.5,N
1505212075.9,286046999.5,N
1505212095.8,286046994.9,N
1505212115.6,286047000.5,N
1505212135.4,286047002.7,N
1505212155.2,286046999.7,N
1505212175.1,286047000.3,N
1505212176.0,286047000.3,N
1505212195.8,286047004.7,N
1505212215.6,286047005.2,N
1505212235.5,286047005.1,N
1505212255.3,286047007.4,N
1505212275.1,286047005.3,N
1505212295.9,286047003.8,N
1505212315.7,286047007.3,N
1505212335.5,286047006.6,N
1505212355.4,286047005.5,N
1505212375.2,286047001.4,N
1505212395.0,286046999.7,N
1505212395.9,286046999.7,N
1505212415.8,286047000.2,N
1505212435.6,286047002.8,N
1505212455.4,286047005.4,N
1505212475.3,286047009.7,N
1505212495.1,286047010.7,N
1505212496.0,286047010.7,N
1505212515.8,286047008.4,N
1505212535.7,286047007.8,N
1505212555.5,286047010.0,N
1505212575.3,286047007.7,N
1505212595.1,286047008.7,N
1505212615.9,286047006.5,N
1505212635.7,286047007.5,N
1505212655.5,286047006.3,N
1505212675.4,286047007.1,N
1505212695.2,286047004.8,N
1505212715.0,286047006.8,N
1505212715.9,286047006.8,N
1505212735.8,286047009.7,P
1505212755.6,286047004.5,N
1505212775.4,286047005.8,N
1505212795.3,286047006.0,P
1505212815.1,286047001.8,P
1505212835.9,286046998.3,N
1505212855.7,286046997.0,N
1505212875.5,286046998.4,N
1505212895.3,286046999.0,N
1505212915.2,286046998.6,N
1505212935.0,286047000.6,N
1505212935.9,286047000.6,N
1505212955.7,286046997.8,N
1505212975.6,286046994.3,N
1505212995.4,286046995.9,N
1505213015.2,286046999.6,N
1505213035.1,286046991.7,N
1505213036.0,286046991.7,N
1505213055.8,286046991.3,N
1505213075.6,286046990.7,N
1505213095.5,286046991.0,N
1505213115.3,286046991.9,N
1505213135.1,286046994.7,N
1505213155.9,286046992.2,N
1505213175.7,286046989.5,N
1505213195.5,286046987.2,N
1505213215.3,286046991.2,N
1505213235.2,286046985.3,N
1505213255.0,286046987.2,N
1505213255.9,286046987.2,N
1505213275.7,286046989.3,N
1505213295.6,286046990.9,N
1505213315.4,286046989.0,N
1505213335.2,286046990.9,N
1505213355.1,286046991.1,N
1505213356.0,286046991.1,N
1505213375.8,286046991.4,N
1505213395.6,286046988.8,N
1505213415.5,286046987.0,P
1505213435.3,286046993.7,N
1505213455.1,286046994.3,N
1505213475.9,286046993.6,N
1505213495.7,286046995.3,N
1505213515.5,286046998.0,N
1505213535.4,286046995.8,N
1505213555.2,286046993.6,N
1505213575.0,286046994.0,N
1505213575.9,286046994.0,N
1505213595.8,286046996.1,N
1505213615.6,286046995.4,N
1505213635.4,286046995.5,N
1505213655.3,286046995.4,N
1505213675.1,286046996.4,N
1505213676.0,286046996.4,N
1505213695.8,286046994.0,N
1505213715.7,286046990.4,P
1505213735.5,286046996.1,N
1505213755.3,286046995.8,N
1505213775.2,286046999.6,N
1505213795.0,286046999.0,N
1505213795.9,286046999.0,N
1505213815.7,286046998.1,N
1505213835.6,286047000.7,N
1505213855.4,286047001.7,N
1505213875.2,286047003.6,N
1505213895.1,286047004.0,N
1505213896.0,286047004.0,N
1505213915.8,286047006.0,N
1505213935.6,286047003.3,N
1505213955.5,286047002.8,N
1505213975.3,286047001.2,N
1505213995.1,286047000.5,N
